ADN2 EDDG-EDDP

Flight info

Callsign ADN2
Flight time 0h 44m
Altitude 23000
Route OSN2C OSN L980 SAS Z88 UPDAT T236 ADMOS T959 KOJEC KOJEC1V
Aircraft C750/M-SBDE3GHRWXY/S

Departure

Time 2026-04-23 19:02
Airport Münster Osnabrück Airport (EDDG)

Arrival

Time 2026-04-23 19:46
Airport Leipzig/Halle Airport (EDDP)
Time Latitude Longitude Altitude Speed Heading
2026-04-23 18:36 52.13210 7.68761 159 ft 0 kts 161°
2026-04-23 18:57 52.13208 7.68762 159 ft 1 kts 161°
2026-04-23 18:57 52.13176 7.68780 159 ft 9 kts 161°
2026-04-23 18:57 52.13134 7.68840 160 ft 7 kts 88°
2026-04-23 18:57 52.13143 7.68917 160 ft 8 kts 66°
2026-04-23 18:58 52.13200 7.68930 160 ft 8 kts 341°
2026-04-23 18:58 52.13261 7.68896 160 ft 9 kts 341°
2026-04-23 18:58 52.13333 7.68856 160 ft 13 kts 354°
2026-04-23 18:58 52.13391 7.68966 160 ft 18 kts 72°
2026-04-23 18:59 52.13446 7.69224 160 ft 26 kts 70°
2026-04-23 18:59 52.13517 7.69541 160 ft 32 kts 74°
2026-04-23 18:59 52.13582 7.69865 160 ft 21 kts 71°
2026-04-23 18:59 52.13671 7.70032 157 ft 21 kts 357°
2026-04-23 19:00 52.13691 7.70030 157 ft 0 kts 356°
2026-04-23 19:00 52.13692 7.70029 157 ft 0 kts 356°
2026-04-23 19:00 52.13702 7.70028 157 ft 1 kts 353°
2026-04-23 19:00 52.13717 7.70024 157 ft 3 kts 346°
2026-04-23 19:01 52.13753 7.70003 157 ft 8 kts 328°
2026-04-23 19:01 52.13759 7.69880 157 ft 16 kts 250°
2026-04-23 19:01 52.13714 7.69667 160 ft 25 kts 250°
2026-04-23 19:01 52.13620 7.69191 160 ft 84 kts 252°
2026-04-23 19:02 52.13441 7.68364 166 ft 152 kts 255°
2026-04-23 19:02 52.13027 7.65700 1302 ft 203 kts 275°
2026-04-23 19:02 52.12736 7.63510 2497 ft 212 kts 243°
2026-04-23 19:02 52.12029 7.62378 3124 ft 226 kts 215°
2026-04-23 19:03 52.10445 7.60195 4292 ft 244 kts 231°
2026-04-23 19:03 52.08793 7.58917 4784 ft 295 kts 180°
2026-04-23 19:03 52.06989 7.60191 5994 ft 297 kts 142°
2026-04-23 19:03 52.05934 7.61831 5836 ft 321 kts 124°
2026-04-23 19:04 52.04916 7.65647 6903 ft 247 kts 95°
2026-04-23 19:04 52.04973 7.68295 6855 ft 232 kts 68°
2026-04-23 19:04 52.05790 7.70585 6947 ft 241 kts 41°
2026-04-23 19:04 52.06978 7.72641 6917 ft 271 kts 56°
2026-04-23 19:05 52.07433 7.75724 6954 ft 288 kts 82°
2026-04-23 19:05 52.07887 7.78955 6960 ft 296 kts 63°
2026-04-23 19:05 52.08624 7.82061 7133 ft 284 kts 65°
2026-04-23 19:05 52.09333 7.84965 7487 ft 272 kts 63°
2026-04-23 19:06 52.09997 7.87657 7790 ft 269 kts 64°
2026-04-23 19:06 52.10693 7.90469 8108 ft 269 kts 64°
2026-04-23 19:06 52.11379 7.93244 8391 ft 270 kts 64°
2026-04-23 19:06 52.12100 7.96164 8602 ft 278 kts 64°
2026-04-23 19:07 52.12800 7.99009 9229 ft 291 kts 64°
2026-04-23 19:07 52.13302 8.01055 10002 ft 291 kts 64°
2026-04-23 19:07 52.14059 8.04135 11140 ft 291 kts 64°
2026-04-23 19:07 52.14793 8.07126 12124 ft 294 kts 64°
2026-04-23 19:08 52.15771 8.11124 13309 ft 300 kts 65°
2026-04-23 19:08 52.16357 8.13521 13975 ft 304 kts 65°
2026-04-23 19:08 52.17069 8.16428 14749 ft 309 kts 65°
2026-04-23 19:08 52.17878 8.19741 15266 ft 325 kts 65°
2026-04-23 19:09 52.18161 8.20904 15300 ft 335 kts 66°
2026-04-23 19:09 52.20018 8.28536 15348 ft 390 kts 65°
2026-04-23 19:09 52.21527 8.32394 15318 ft 408 kts 45°
2026-04-23 19:09 52.23782 8.35052 15331 ft 413 kts 25°
2026-04-23 19:10 52.26323 8.36552 15324 ft 395 kts 19°
2026-04-23 19:10 52.28591 8.39047 15290 ft 383 kts 46°
2026-04-23 19:10 52.29874 8.42838 15298 ft 379 kts 71°
2026-04-23 19:10 52.30059 8.47054 15302 ft 378 kts 95°
2026-04-23 19:11 52.29176 8.51060 15316 ft 377 kts 115°
2026-04-23 19:11 52.28131 8.55016 15300 ft 370 kts 105°
2026-04-23 19:11 52.27290 8.58956 15311 ft 367 kts 107°
2026-04-23 19:11 52.26432 8.62868 15315 ft 370 kts 106°
2026-04-23 19:12 52.25863 8.65462 15316 ft 372 kts 107°
2026-04-23 19:12 52.24724 8.70667 15298 ft 376 kts 107°
2026-04-23 19:12 52.23830 8.74765 15311 ft 377 kts 107°
2026-04-23 19:12 52.22935 8.78869 15285 ft 379 kts 107°
2026-04-23 19:13 52.22070 8.82676 15293 ft 381 kts 109°
2026-04-23 19:13 52.21066 8.86730 15625 ft 390 kts 109°
2026-04-23 19:13 52.20061 8.90780 16555 ft 392 kts 110°
2026-04-23 19:13 52.19037 8.94888 17556 ft 392 kts 110°
2026-04-23 19:14 52.18427 8.97319 18103 ft 393 kts 110°
2026-04-23 19:14 52.17010 9.02958 19281 ft 398 kts 110°
2026-04-23 19:14 52.15964 9.07106 20072 ft 403 kts 110°
2026-04-23 19:14 52.14899 9.11327 20854 ft 407 kts 110°
2026-04-23 19:15 52.13855 9.15464 21612 ft 410 kts 110°
2026-04-23 19:15 52.12761 9.19784 22351 ft 414 kts 110°
2026-04-23 19:15 52.11665 9.24109 23077 ft 418 kts 110°
2026-04-23 19:15 52.10527 9.28592 23275 ft 434 kts 110°
2026-04-23 19:16 52.09349 9.33220 23308 ft 449 kts 110°
2026-04-23 19:16 52.08137 9.37965 23301 ft 463 kts 110°
2026-04-23 19:16 52.06892 9.42839 23292 ft 475 kts 110°
2026-04-23 19:17 52.04351 9.52747 23289 ft 488 kts 110°
2026-04-23 19:17 52.03081 9.57675 23271 ft 472 kts 110°
2026-04-23 19:17 52.01808 9.62605 23256 ft 457 kts 110°
2026-04-23 19:17 52.00609 9.67248 23251 ft 445 kts 111°
2026-04-23 19:18 51.99434 9.71782 23252 ft 435 kts 111°
2026-04-23 19:18 51.98241 9.76381 23247 ft 426 kts 111°
2026-04-23 19:18 51.97090 9.80808 23248 ft 418 kts 111°
2026-04-23 19:18 51.95968 9.85114 23252 ft 411 kts 110°
2026-04-23 19:19 51.93808 9.93383 23242 ft 401 kts 110°
2026-04-23 19:19 51.92729 9.97511 23245 ft 396 kts 110°
2026-04-23 19:20 51.90621 10.05530 23086 ft 387 kts 110°
2026-04-23 19:20 51.89568 10.09535 22574 ft 387 kts 110°
2026-04-23 19:20 51.88506 10.13560 22054 ft 387 kts 110°
2026-04-23 19:21 51.86430 10.21410 21154 ft 382 kts 110°
2026-04-23 19:21 51.84343 10.29272 20261 ft 378 kts 110°
2026-04-23 19:21 51.83293 10.33217 19824 ft 376 kts 110°
2026-04-23 19:22 51.82285 10.37001 19419 ft 374 kts 110°
2026-04-23 19:22 51.81257 10.40854 19012 ft 372 kts 110°
2026-04-23 19:22 51.79218 10.48467 18165 ft 369 kts 110°
2026-04-23 19:23 51.78183 10.52328 17774 ft 366 kts 110°
2026-04-23 19:23 51.77172 10.56082 17388 ft 365 kts 110°
2026-04-23 19:23 51.76181 10.59765 17238 ft 356 kts 110°
2026-04-23 19:24 51.74209 10.67057 17216 ft 345 kts 110°
2026-04-23 19:24 51.73505 10.70737 17217 ft 337 kts 99°
2026-04-23 19:24 51.72411 10.78040 17215 ft 330 kts 100°
2026-04-23 19:25 51.71363 10.85056 17219 ft 326 kts 99°
2026-04-23 19:25 51.70307 10.92115 17220 ft 322 kts 99°
2026-04-23 19:26 51.69260 10.99089 17096 ft 318 kts 99°
2026-04-23 19:26 51.68745 11.02528 16875 ft 319 kts 99°
2026-04-23 19:27 51.67716 11.09322 16435 ft 319 kts 99°
2026-04-23 19:27 51.66149 11.19625 15612 ft 314 kts 99°
2026-04-23 19:28 51.65098 11.26509 14813 ft 313 kts 99°
2026-04-23 19:28 51.64062 11.33256 14073 ft 310 kts 98°
2026-04-23 19:29 51.63563 11.36497 13723 ft 309 kts 98°
2026-04-23 19:29 51.62534 11.43169 13024 ft 304 kts 98°
2026-04-23 19:30 51.61529 11.49658 12095 ft 302 kts 98°
2026-04-23 19:30 51.61022 11.52933 11638 ft 300 kts 98°
2026-04-23 19:30 51.60018 11.59381 10746 ft 296 kts 98°
2026-04-23 19:31 51.59517 11.62568 10319 ft 293 kts 98°
2026-04-23 19:31 51.59027 11.65688 10220 ft 285 kts 99°
2026-04-23 19:31 51.58536 11.68821 10208 ft 284 kts 99°
2026-04-23 19:31 51.58041 11.71966 10123 ft 279 kts 98°
2026-04-23 19:32 51.57580 11.74895 9767 ft 279 kts 99°
2026-04-23 19:32 51.57100 11.77960 9351 ft 280 kts 99°
2026-04-23 19:32 51.56620 11.80981 8961 ft 280 kts 99°
2026-04-23 19:32 51.56142 11.84004 8605 ft 278 kts 99°
2026-04-23 19:33 51.55676 11.86942 8292 ft 281 kts 99°
2026-04-23 19:33 51.55192 11.89970 8218 ft 277 kts 99°
2026-04-23 19:33 51.54249 11.95888 8206 ft 272 kts 99°
2026-04-23 19:34 51.53817 11.98734 8193 ft 271 kts 94°
2026-04-23 19:34 51.53854 12.01700 8209 ft 264 kts 78°
2026-04-23 19:34 51.54156 12.07651 8193 ft 267 kts 80°
2026-04-23 19:35 51.54293 12.10505 8223 ft 267 kts 80°
2026-04-23 19:35 51.54434 12.13465 8214 ft 269 kts 80°
2026-04-23 19:35 51.54583 12.16550 8008 ft 276 kts 81°
2026-04-23 19:35 51.54726 12.19625 7974 ft 275 kts 81°
2026-04-23 19:36 51.54859 12.22511 7833 ft 273 kts 81°
2026-04-23 19:36 51.55002 12.25571 7527 ft 272 kts 81°
2026-04-23 19:36 51.55145 12.28604 7136 ft 273 kts 81°
2026-04-23 19:36 51.55283 12.31612 6756 ft 273 kts 81°
2026-04-23 19:37 51.55419 12.34611 6317 ft 272 kts 81°
2026-04-23 19:37 51.55555 12.37584 5881 ft 270 kts 81°
2026-04-23 19:37 51.55689 12.40597 5403 ft 268 kts 81°
2026-04-23 19:37 51.55823 12.43576 4878 ft 266 kts 81°
2026-04-23 19:38 51.55953 12.46457 4348 ft 265 kts 81°
2026-04-23 19:38 51.56082 12.49383 3823 ft 260 kts 82°
2026-04-23 19:38 51.56211 12.52280 3184 ft 259 kts 82°
2026-04-23 19:38 51.56036 12.55071 2972 ft 250 kts 110°
2026-04-23 19:39 51.54915 12.57048 2976 ft 243 kts 151°
2026-04-23 19:39 51.53329 12.57679 2999 ft 234 kts 175°
2026-04-23 19:39 51.51682 12.57984 2989 ft 238 kts 174°
2026-04-23 19:39 51.50021 12.58294 2992 ft 243 kts 174°
2026-04-23 19:40 51.48386 12.58595 2988 ft 244 kts 174°
2026-04-23 19:40 51.46697 12.58687 2962 ft 241 kts 194°
2026-04-23 19:40 51.45341 12.57388 2993 ft 227 kts 231°
2026-04-23 19:40 51.44313 12.55421 2994 ft 229 kts 234°
2026-04-23 19:41 51.43317 12.53484 2991 ft 233 kts 234°
2026-04-23 19:41 51.42593 12.51252 2967 ft 219 kts 264°
2026-04-23 19:41 51.42463 12.48926 3002 ft 196 kts 269°
2026-04-23 19:41 51.42350 12.46898 2975 ft 175 kts 270°
2026-04-23 19:42 51.42268 12.45061 2839 ft 167 kts 270°
2026-04-23 19:42 51.42190 12.43217 2633 ft 164 kts 271°
2026-04-23 19:42 51.42110 12.41391 2424 ft 161 kts 270°
2026-04-23 19:42 51.42033 12.39751 2244 ft 136 kts 270°
2026-04-23 19:43 51.41969 12.38324 2051 ft 133 kts 271°
2026-04-23 19:43 51.41906 12.36843 1871 ft 130 kts 271°
2026-04-23 19:43 51.41843 12.35429 1699 ft 128 kts 271°
2026-04-23 19:43 51.41781 12.34010 1526 ft 126 kts 271°
2026-04-23 19:44 51.41722 12.32677 1365 ft 125 kts 270°
2026-04-23 19:44 51.41659 12.31278 1197 ft 124 kts 269°
2026-04-23 19:44 51.41595 12.29908 1031 ft 123 kts 269°
2026-04-23 19:44 51.41534 12.28543 867 ft 123 kts 269°
2026-04-23 19:45 51.41480 12.27236 705 ft 123 kts 269°
2026-04-23 19:45 51.41428 12.25876 539 ft 122 kts 265°
2026-04-23 19:45 51.41352 12.24559 450 ft 111 kts 266°
2026-04-23 19:45 51.41309 12.23548 459 ft 78 kts 265°
2026-04-23 19:46 51.41264 12.22818 463 ft 50 kts 253°
2026-04-23 19:46 51.41136 12.22445 462 ft 22 kts 237°
2026-04-23 19:46 51.41078 12.22208 457 ft 23 kts 257°
2026-04-23 19:46 51.41059 12.21938 452 ft 25 kts 265°
2026-04-23 19:47 51.41053 12.21769 447 ft 26 kts 265°
2026-04-23 19:47 51.41040 12.21532 441 ft 6 kts 263°
2026-04-23 19:47 51.41036 12.21456 440 ft 6 kts 266°
2026-04-23 19:47 51.41031 12.21349 436 ft 12 kts 265°
2026-04-23 19:48 51.41025 12.21187 432 ft 16 kts 265°
2026-04-23 19:48 51.41018 12.21055 430 ft 0 kts 265°
2026-04-23 19:48 51.41018 12.21049 430 ft 0 kts 265°
2026-04-23 19:48 51.41017 12.21040 430 ft 0 kts 265°
2026-04-23 19:49 51.41016 12.21025 429 ft 3 kts 264°
2026-04-23 19:49 51.41013 12.20954 427 ft 10 kts 265°
2026-04-23 19:49 51.41005 12.20785 422 ft 19 kts 266°
2026-04-23 19:49 51.40988 12.20519 420 ft 27 kts 245°
2026-04-23 19:50 51.40918 12.20227 414 ft 31 kts 263°
2026-04-23 19:50 51.40902 12.19904 411 ft 21 kts 265°
2026-04-23 19:50 51.40862 12.19850 410 ft 8 kts 161°
2026-04-23 19:50 51.40807 12.19861 410 ft 0 kts 174°
2026-04-23 19:51 51.40795 12.19863 410 ft 0 kts 175°